Regional Weather Roundup
Issued by NWS

Home | Current Version | Previous Version | Text Only | Print | Product List | Glossary Off
Versions: 1 2 3 4 5 6 7 8 9 10 11 12 13 14 15 16 17 18 19 20 21 22 23 24 25 26 27 28 29 30 31 32 33 34 35 36 37 38 39 40 41 42 43 44 45 46 47 48 49 50

000
ASUS43 KLSX 211307
RWRMO

WEATHER SUMMARY FOR MISSOURI
NATIONAL WEATHER SERVICE SPRINGFIELD MO
700 AM CST SAT JAN 21 2017

NOTE: "FAIR" INDICATES FEW OR NO CLOUDS BELOW 12,000 FEET WITH NO
       SIGNIFICANT WEATHER AND/OR OBSTRUCTIONS TO VISIBILITY.
       CURRENT SKY AND/OR WEATHER CONDITIONS ARE NOT AVAILABLE FOR
       CHILLICOTHE AND FARMINGTON.

MOZ001>031-035>038-043-044-053-054-211400-
...NORTHERN AND WESTERN MISSOURI...

CITY           SKY/WX    TMP DP  RH WIND       PRES   REMARKS
KANSAS CTY INT FOG       41  39  93 SW8       29.47R VSB 1/2
KANSAS C DTWN  CLOUDY    41  40  96 W8        29.48S FOG
LEE`S SUMMIT   CLOUDY    40  39  97 SW12      29.49R FOG
ST JOSEPH      FOG       40  40 100 SW9       29.46R VSB 1/2
CHILLICOTHE      N/A     38  38 100 S3        29.46R
KIRKSVILLE     CLEAR     42  38  85 SW9       29.44R

$$
MOZ066>068-077>081-088>096-101>105-211400-
...SOUTHWEST MISSOURI...

CITY           SKY/WX    TMP DP  RH WIND       PRES   REMARKS
SPRINGFIELD    CLEAR     42  35  76 SW8       29.54R
JOPLIN         CLEAR     43  35  73 SW5       29.55R
BRANSON        CLEAR     50  37  62 SE6       29.57S

$$
MOZ032>034-039>042-045>050-055>058-069>072-211400-
...CENTRAL MISSOURI...

CITY           SKY/WX    TMP DP  RH WIND       PRES   REMARKS
COLUMBIA       CLEAR     46  39  76 SW12      29.50R
JEFFERSON CITY CLEAR     50  39  66 S5        29.51R
ROLLA          CLEAR     49  43  80 S12       29.52R
SEDALIA        CLEAR     47  38  71 SW15      29.52R
WHITEMAN AFB   MOCLDY    43  43 100 SW13      29.50R
WARRENSBURG    CLOUDY    41  37  87 S10       29.52R
OSAGE BEACH    PTCLDY    47  39  74 S6        29.53R

$$
MOZ051-052-059>065-211400-
...EAST CENTRAL MISSOURI...

CITY           SKY/WX    TMP DP  RH WIND       PRES   REMARKS
ST LOUIS INTL  PTCLDY    52  45  77 S9        29.53S
SPIRIT OF STL  CLEAR     53  45  74 SW6       29.52R
ST CHARLES     CLEAR     40  40 100 SE7       29.52R

$$
MOZ072>076-082>087-097>100-106>115-211400-
...SOUTH CENTRAL AND SOUTHEAST MISSOURI...

CITY           SKY/WX    TMP DP  RH WIND       PRES   REMARKS
CAPE GIRARDEAU CLOUDY    50  48  93 NE3       29.62R
FARMINGTON     PTCLDY    48  46  93 S9        29.58S
POPLAR BLUFF   CLOUDY    44  44 100 CALM      29.61S
WEST PLAINS    PTCLDY    48  44  86 S6        29.59R

$$



USA.gov is the U.S. government's official web portal to all federal, state and local government web resources and services.